Location: Spruce Knob
(38.6995°N, 79.5330°W)
Time: 14:52:20
(UTC-05:00)

FO-29 - Pass Details

Date: 03 December 2023
Orbit: 799 x 1322 km, 98.6° (Epoch: 26 February)

Event Time Altitude Azimuth Distance (km) Brightness Sun altitude
Rises 04:18:13 0° 4° (N) 4,145 12.8 -34.6°
Reaches altitude 10° 04:20:59 10° 358° (N) 3,231 12.1 -34.1°
Enters shadow 04:21:20 12° 356° (N) 3,119 12.0 -34.0°
